[[{"header":{"parameterUnit":"m.s-1","parameterCategory":1,"la1":30.2991,"la2":30.254,"lo1":-89.0895,"lo2":-89.0444,"dy":0.0017,"dx":0.0017,"nx":28,"ny":28,"refTime":"2023-09-20T21:00:00:Z","depth":0,"parameterNumber":2,"parameterNumberName":"U-component_of_WINDS"},"data":[0,0,0,0,0,0,0,0,0,0,0,0,0,0,0,0,0,0,0,0,0,0,0,0,0,0,0,0,0,0,0,0,0,0,0,0,0,0,0,0,0,0,0,0,0,0,0,0,0,0,0,0,0,0,0,0,0,0,-4.9791,-4.9791,0,-4.9856,-4.9857,-4.9858,-4.9762,-4.9759,-4.9755,-4.9752,-4.9821,-4.9826,-4.9831,0,0,0,0,0,0,0,0,0,0,0,0,0,-4.9585,-4.959,-4.9791,-4.9791,-4.9792,-4.9856,-4.9857,-4.9858,-4.9763,-4.9759,-4.9754,-4.9751,-4.9819,-4.9825,-4.9831,0,0,0,0,0,0,0,0,0,0,0,0,0,-4.9665,-4.9591,-4.9791,-4.9752,-4.975,-4.9856,-4.9857,-4.9858,-4.9764,-4.9758,-4.9753,-4.9749,-4.9817,-4.9824,-4.9832,-4.9979,0,0,-4.9855,-4.9858,0,0,0,0,0,0,0,0,-4.9661,-4.9673,-4.9757,-4.9755,-4.9752,-4.9796,-4.9809,-4.9899,-4.9765,-4.9758,-4.9752,-4.9746,-4.9817,-4.9824,-4.9847,-4.9982,-4.9985,-4.9855,-4.986,-4.9863,-4.9865,0,0,0,0,0,0,0,-4.9655,-4.9669,-4.9816,-4.9759,-4.9756,-4.9733,-4.9739,-4.9826,-4.9815,-4.9759,-4.9752,-4.9761,-4.9814,-4.984,-4.9848,-4.9986,-4.9855,-4.9862,-4.9866,-4.9869,-5.0246,-5.0251,0,0,0,0,0,0,-4.9654,-4.9665,-4.9814,-4.9818,-4.9693,-4.9741,-4.9747,-4.9787,-4.9814,-4.9813,-4.9765,-4.9756,-4.983,-4.984,-4.985,-5.0025,-4.9863,-4.987,-4.9874,-5.024,-5.0247,-5.0253,0,0,0,0,0,0,-4.965,-4.9668,-4.9812,-4.974,-4.9757,-4.9749,-4.9795,-4.9791,-4.9817,-4.9819,-4.9816,-4.9793,-4.9826,-4.984,-4.9948,-5.0026,-4.9873,-4.988,-5.0234,-5.0242,-5.025,-5.0375,0,0,0,0,0,0,-4.9645,-4.9667,-4.9723,-4.9742,-4.9761,-4.9908,-4.98,-4.9796,-4.983,-4.9819,-4.9845,-4.9844,-4.9823,-4.9937,-4.9955,-5.0033,-4.9886,-5.0227,-5.0238,-5.0247,-5.0364,-5.0387,-5.0406,0,0,0,0,0,-4.9638,-4.9755,-4.9726,-4.9744,-4.983,-4.9913,-4.9923,-4.9897,-4.9836,-4.9892,-4.9894,-4.9843,-5.0014,-4.9949,-4.9968,-5.005,-5.0222,-5.0235,-5.0247,-5.0355,-5.0382,-5.0406,0,0,0,0,0,0,-4.9745,-4.9757,-4.9725,-4.9852,-4.9882,-4.9896,-4.9966,-4.9927,-4.9975,-4.9963,-4.9928,-4.9935,-5.0051,-5.0061,-4.9988,-5.0195,-5.0108,-5.0125,-5.0184,-5.021,-5.0231,-5.0226,-4.9892,0,0,0,0,0,-4.9784,-4.985,-4.9856,-4.9968,-4.9985,-4.9973,-5.0008,-4.9985,-5.0015,-5.0028,-5.0037,-5.0068,-5.0129,-5.017,-5.0226,-5.0365,-5.037,-5.0431,-5.0452,-5.0469,-5.0485,-5.0561,-5.0588,-5.0294,-5.0294,-5.0294,0,0,-4.9864,-4.9879,-4.9922,-4.999,-5.0011,-5.0081,-4.9985,-5.0062,-5.0114,-5.0039,-5.0142,-5.015,-5.0183,-5.0308,-5.0363,-5.032,-5.0567,-5.0485,-5.0499,-5.0505,-5.0576,-5.0604,-5.0629,-5.0303,-5.0301,-5.03,0,0,-5.0046,-5.0064,-5.0159,-5.0182,-5.0214,-5.0206,-5.0229,-5.025,-5.0252,-5.0355,-5.0301,-5.0362,-5.0467,-5.0493,-5.052,-5.0714,-5.0671,-5.0734,-5.0844,-5.0918,-5.0942,-5.0962,-5.1033,-5.1058,-5.0749,-5.0749,-5.0749,0,-5.0142,-5.0245,-5.0213,-5.0296,-5.0328,-5.0263,-5.036,-5.0384,-5.0434,-5.0458,-5.0408,-5.054,-5.0557,-5.0688,-5.0736,-5.0759,-5.0785,-5.0731,-5.0941,-5.0961,-5.0979,-5.1046,-5.1073,-5.0756,-5.0756,-5.0755,-5.0754,0,-5.0362,-5.0434,-5.0508,-5.0557,-5.0597,-5.0686,-5.0669,-5.0714,-5.0688,-5.0685,-5.0791,-5.081,-5.0869,-5.0898,-5.0873,-5.1026,-5.0999,-5.0946,-5.0858,-5.1016,-5.1078,-5.1103,-5.0767,-5.0765,-5.0762,-5.076,0,0,-5.0614,-5.0645,-5.0673,-5.0695,-5.0727,-5.0782,-5.0869,-5.0927,-5.0967,-5.1003,-5.1076,-5.1167,-5.1119,-5.1149,-5.1127,-5.1192,-5.1347,-5.1131,-5.1132,-5.1172,-5.1518,-5.1558,-5.1588,-5.1317,-5.1322,-5.1326,-5.1515,0,-5.0797,-5.0946,-5.0921,-5.1067,-5.1134,-5.1074,-5.115,-5.1178,-5.1178,-5.1236,-5.1235,-5.1301,-5.1231,-5.125,-5.1312,-5.1315,-5.1416,-5.13,-5.1386,-5.139,-5.1381,-5.1621,-5.1663,-5.1841,-5.1539,-5.1544,-5.1546,0,-5.103,-5.1075,-5.1228,-5.125,-5.1277,-5.1345,-5.1397,-5.1452,-5.1484,-5.1479,-5.1515,-5.148,-5.1568,-5.1479,-5.1601,-5.1523,-5.1557,-5.1564,-5.157,-5.1577,-5.1478,-5.1636,-5.1897,-5.1924,-5.1584,-5.1581,-5.1579,0,-5.12,-5.1299,-5.1403,-5.1424,-5.1452,-5.1502,-5.1516,-5.1542,-5.1579,-5.1625,-5.1648,-5.1704,-5.1734,-5.1778,-5.1761,-5.1697,-5.1887,-5.1795,-5.1886,-5.1887,-5.1929,-5.1927,-5.2201,-5.195,-5.1949,-5.1949,-5.1948,0,-5.1407,-5.1503,-5.148,-5.1544,-5.165,-5.1621,-5.1727,-5.1734,-5.1758,-5.1824,-5.1775,-5.1838,-5.181,-5.1871,-5.1858,-5.1962,-5.1975,-5.1975,-5.1971,-5.198,-5.198,-5.2002,-5.199,-5.1956,-5.1954,-5.1953,-5.1952,0,-5.1615,-5.1603,-5.1713,-5.1731,-5.1738,-5.1816,-5.1831,-5.1892,-5.1888,-5.1972,-5.199,-5.1985,-5.2054,-5.2041,-5.2117,-5.2108,-5.2239,-5.2218,-5.2228,-5.2224,-5.2316,-5.2308,-5.2614,-5.2653,-5.2376,-5.2379,-5.2381,0,-5.1748,-5.1821,-5.1847,-5.1887,-5.1905,-5.197,-5.2008,-5.1982,-5.2023,-5.2065,-5.2122,-5.2187,-5.2237,-5.2352,-5.2355,-5.2414,-5.2395,-5.2499,-5.2404,-5.2412,-5.2399,-5.2395,-5.2403,-5.2518,-5.2521,-5.2524,-5.2526,0,-5.1987,-5.1978,-5.2033,-5.2088,-5.2134,-5.2176,-5.2213,-5.2249,-5.2226,-5.2276,-5.2346,-5.2385,-5.2464,-5.253,-5.2585,-5.26,-5.2561,-5.2555,-5.258,-5.2591,-5.2594,-5.2595,-5.2281,-5.2549,-5.2546,-5.2545,-5.2543,-5.2542,-5.2162,-5.2225,-5.2253,-5.2317,-5.2342,-5.2379,-5.2437,-5.2441,-5.2499,-5.2561,-5.2542,-5.2623,-5.2653,-5.2723,-5.2745,-5.2808,-5.277,-5.2805,-5.2814,-5.2823,-5.2835,-5.2583,-5.2818,-5.2817,-5.2817,-5.2816,-5.2816,0,-5.2399,-5.2415,-5.2474,-5.2528,-5.2579,-5.2536,-5.2575,-5.2621,-5.2692,-5.2724,-5.2775,-5.2857,-5.2921,-5.293,-5.2991,-5.304,-5.3024,-5.3057,-5.3054,-5.3059,-5.2865,-5.2839,-5.307,-5.307,-5.307,-5.307,-5.307,-5.307,-5.2529,-5.2632,-5.2627,-5.2743,-5.2758,-5.2836,-5.2862,-5.2896,-5.2921,-5.3015,-5.3068,-5.3073,-5.3096,-5.3159,-5.3216,-5.3217,-5.3242,-5.3284,-5.3278,-5.3097,-5.3072,-5.3048,-5.3023,-5.3289,-5.3289,-5.3466,-5.3468,-5.3469]},{"header":{"parameterUnit":"m.s-1","parameterCategory":1,"la1":30.2991,"la2":30.254,"lo1":-89.0895,"lo2":-89.0444,"dy":0.0017,"dx":0.0017,"nx":28,"ny":28,"refTime":"2023-09-20T21:00:00:Z","depth":0,"parameterNumber":3,"parameterNumberName":"V-component_of_WINDS"},"data":[0,0,0,0,0,0,0,0,0,0,0,0,0,0,0,0,0,0,0,0,0,0,0,0,0,0,0,0,0,0,0,0,0,0,0,0,0,0,0,0,0,0,0,0,0,0,0,0,0,0,0,0,0,0,0,0,0,0,-1.6592,-1.6592,0,-1.6589,-1.6589,-1.6589,-1.6542,-1.6541,-1.654,-1.6538,-1.6537,-1.6538,-1.6539,0,0,0,0,0,0,0,0,0,0,0,0,0,-1.6558,-1.6559,-1.6592,-1.6592,-1.6592,-1.6589,-1.6589,-1.6589,-1.6542,-1.6541,-1.6539,-1.6538,-1.6536,-1.6537,-1.6539,0,0,0,0,0,0,0,0,0,0,0,0,0,-1.6566,-1.656,-1.6592,-1.6569,-1.6566,-1.6589,-1.6589,-1.6589,-1.6542,-1.6541,-1.6539,-1.6537,-1.6536,-1.6537,-1.6539,-1.6585,0,0,-1.6544,-1.6545,0,0,0,0,0,0,0,0,-1.6566,-1.6567,-1.6572,-1.657,-1.6568,-1.6564,-1.6576,-1.6588,-1.6543,-1.6552,-1.6538,-1.6536,-1.6547,-1.6548,-1.6551,-1.6585,-1.6585,-1.6544,-1.6545,-1.6546,-1.6546,0,0,0,0,0,0,0,-1.6565,-1.6567,-1.6591,-1.6572,-1.657,-1.6558,-1.6557,-1.6578,-1.656,-1.6551,-1.6547,-1.6547,-1.6546,-1.655,-1.6551,-1.6585,-1.6544,-1.6545,-1.6546,-1.6547,-1.6656,-1.6657,0,0,0,0,0,0,-1.6568,-1.6567,-1.6591,-1.6591,-1.6562,-1.656,-1.6559,-1.6567,-1.6559,-1.6556,-1.6549,-1.6545,-1.6548,-1.6549,-1.6551,-1.6604,-1.6546,-1.6547,-1.6548,-1.6654,-1.6656,-1.6658,0,0,0,0,0,0,-1.6567,-1.657,-1.6591,-1.6578,-1.658,-1.6563,-1.6572,-1.6568,-1.6572,-1.6558,-1.6554,-1.6557,-1.6547,-1.6548,-1.6577,-1.6603,-1.6548,-1.6549,-1.6651,-1.6654,-1.6657,-1.6711,0,0,0,0,0,0,-1.6567,-1.6571,-1.6588,-1.6579,-1.6581,-1.6618,-1.6574,-1.6569,-1.6575,-1.657,-1.6564,-1.6561,-1.6545,-1.6574,-1.6578,-1.6605,-1.6551,-1.6649,-1.6653,-1.6656,-1.6707,-1.6716,-1.6723,0,0,0,0,0,-1.6565,-1.6604,-1.6589,-1.6592,-1.6602,-1.6619,-1.662,-1.6601,-1.6577,-1.6594,-1.6585,-1.6562,-1.6599,-1.6578,-1.6582,-1.6609,-1.6647,-1.6652,-1.6656,-1.6704,-1.6714,-1.6723,0,0,0,0,0,0,-1.6617,-1.6602,-1.6586,-1.6622,-1.6622,-1.6611,-1.6633,-1.6612,-1.662,-1.6615,-1.659,-1.6589,-1.6621,-1.6618,-1.6594,-1.6653,-1.6619,-1.6625,-1.6654,-1.6664,-1.6672,-1.6673,-1.6552,0,0,0,0,0,-1.6633,-1.6648,-1.6634,-1.6667,-1.6668,-1.665,-1.6657,-1.6642,-1.6641,-1.6641,-1.6634,-1.6634,-1.6646,-1.6655,-1.6665,-1.6706,-1.6704,-1.6726,-1.6734,-1.6741,-1.6746,-1.6768,-1.6778,-1.6672,-1.6672,-1.6672,0,0,-1.6665,-1.6659,-1.667,-1.6677,-1.6676,-1.6692,-1.6651,-1.667,-1.6682,-1.6644,-1.667,-1.6665,-1.6664,-1.6699,-1.6714,-1.6697,-1.6775,-1.6747,-1.6752,-1.6754,-1.6773,-1.6783,-1.6792,-1.6675,-1.6675,-1.6674,0,0,-1.6733,-1.6729,-1.6757,-1.6755,-1.6753,-1.6741,-1.6747,-1.6739,-1.6734,-1.676,-1.6732,-1.6745,-1.6766,-1.6767,-1.677,-1.6836,-1.6815,-1.684,-1.6882,-1.6904,-1.6912,-1.6919,-1.6943,-1.6952,-1.6845,-1.6845,-1.6845,0,-1.6774,-1.6797,-1.6774,-1.6794,-1.6798,-1.6764,-1.6792,-1.6792,-1.6793,-1.6797,-1.6777,-1.6802,-1.6799,-1.6834,-1.685,-1.6853,-1.686,-1.6841,-1.6912,-1.6919,-1.6926,-1.6949,-1.6958,-1.6848,-1.6848,-1.6848,-1.6847,0,-1.6847,-1.6864,-1.6886,-1.6888,-1.6894,-1.6918,-1.6899,-1.6908,-1.6892,-1.6881,-1.6908,-1.6903,-1.6911,-1.6918,-1.6902,-1.695,-1.694,-1.6917,-1.6883,-1.694,-1.6961,-1.6969,-1.6853,-1.6852,-1.6851,-1.685,0,0,-1.6949,-1.6936,-1.6945,-1.6945,-1.6939,-1.6951,-1.6974,-1.6981,-1.699,-1.6991,-1.701,-1.7028,-1.7006,-1.701,-1.6994,-1.7012,-1.7066,-1.6987,-1.6986,-1.7002,-1.7118,-1.7136,-1.7147,-1.7051,-1.7052,-1.7054,-1.7118,0,-1.7015,-1.7052,-1.7031,-1.7071,-1.7086,-1.7053,-1.7072,-1.7071,-1.7062,-1.7073,-1.7063,-1.7076,-1.7047,-1.7048,-1.7065,-1.7056,-1.7089,-1.705,-1.7068,-1.7069,-1.7071,-1.7158,-1.7177,-1.7238,-1.7126,-1.7128,-1.7129,0,-1.7097,-1.7101,-1.7143,-1.7134,-1.7139,-1.7157,-1.7162,-1.7173,-1.717,-1.7162,-1.7166,-1.7145,-1.7166,-1.7132,-1.7161,-1.7135,-1.7141,-1.7137,-1.7139,-1.7141,-1.7103,-1.7163,-1.7258,-1.7267,-1.7141,-1.714,-1.714,0,-1.7168,-1.7184,-1.7211,-1.7212,-1.7201,-1.7215,-1.7211,-1.7207,-1.7212,-1.7217,-1.722,-1.7227,-1.7231,-1.7237,-1.7219,-1.7195,-1.7251,-1.7215,-1.7245,-1.7246,-1.726,-1.7259,-1.7358,-1.7262,-1.7262,-1.7261,-1.7261,0,-1.7244,-1.7271,-1.7242,-1.7259,-1.7288,-1.7264,-1.7293,-1.7286,-1.7282,-1.7297,-1.7268,-1.7283,-1.7258,-1.727,-1.7255,-1.7282,-1.7284,-1.7278,-1.7275,-1.7282,-1.7283,-1.7286,-1.7282,-1.7264,-1.7263,-1.7263,-1.7262,0,-1.7329,-1.731,-1.7338,-1.7325,-1.7322,-1.7345,-1.7334,-1.7349,-1.7337,-1.7356,-1.7359,-1.7341,-1.7354,-1.7336,-1.7347,-1.7337,-1.7374,-1.7363,-1.7375,-1.7372,-1.7404,-1.7402,-1.7509,-1.7522,-1.7417,-1.7418,-1.7419,0,-1.7379,-1.7399,-1.7388,-1.7396,-1.7393,-1.7406,-1.7411,-1.7387,-1.7394,-1.7392,-1.7408,-1.7418,-1.7425,-1.7447,-1.7435,-1.7443,-1.7433,-1.747,-1.7434,-1.744,-1.7434,-1.7434,-1.7436,-1.7478,-1.7479,-1.748,-1.7481,0,-1.7471,-1.746,-1.7469,-1.7474,-1.7481,-1.7484,-1.7485,-1.7493,-1.7468,-1.7477,-1.749,-1.7495,-1.7505,-1.7516,-1.7521,-1.7517,-1.7495,-1.7492,-1.7499,-1.7508,-1.7514,-1.7511,-1.7396,-1.749,-1.7489,-1.7488,-1.7488,-1.7487,-1.754,-1.7556,-1.7551,-1.7561,-1.7559,-1.7561,-1.7574,-1.7563,-1.7573,-1.7579,-1.7564,-1.758,-1.7577,-1.7581,-1.758,-1.7592,-1.7576,-1.7587,-1.759,-1.7593,-1.7599,-1.7511,-1.7593,-1.7592,-1.7592,-1.7592,-1.7592,0,-1.7631,-1.7625,-1.7635,-1.7637,-1.7645,-1.7622,-1.7622,-1.763,-1.7644,-1.7643,-1.765,-1.7664,-1.7673,-1.7662,-1.767,-1.7682,-1.7672,-1.7685,-1.7684,-1.7684,-1.7612,-1.7605,-1.7693,-1.7693,-1.7693,-1.7692,-1.7692,-1.7692,-1.7679,-1.7705,-1.7694,-1.7718,-1.7712,-1.7727,-1.7729,-1.773,-1.7729,-1.7745,-1.7753,-1.7745,-1.7739,-1.7746,-1.7754,-1.775,-1.7755,-1.7772,-1.7765,-1.7699,-1.7689,-1.7679,-1.7673,-1.7773,-1.7773,-1.7835,-1.7836,-1.7836]}]]